Date String (YYYY-MM-DD hh:mm:ss) UTC,Instrument flags,Ambient pressure (hPa),Sample flow (lpm),Bypass flow (lpm),Sample temperature (°C),Ambient temperature (°C),ASC tube jacket temperature (°C),LED temperature (°C),Box temperature (°C),Sample RH (%),Span deviation,Mass concentration (μg/m³),Mass concentration (μg/m³),Mass concentration (μg/m³)
DateTimeUTC,F1_M11,P_M11,Q1_M11,Q2_M11,T1_M11,T2_M11,T3_M11,T4_M11,T5_M11,U1_M11,ZSPAN_M11,X0_M11,X2_M11,X1_M11
2022-09-07 02:00:00,,0831.4,4.99,0.00,29.5,28.5,00.0,38.0,31.5,14.5,0001.9,0037.02,0024.91,0023.51
2022-09-07 02:01:00,,0831.4,5.01,0.00,29.5,27.8,00.0,38.1,31.4,14.5,0001.8,0038.21,0025.01,0023.59
2022-09-07 02:02:00,,0831.4,5.00,0.00,29.5,26.5,00.0,38.0,31.2,14.5,0001.4,0038.44,0025.09,0023.66
2022-09-07 02:03:00,,0831.4,5.00,0.00,29.4,26.2,00.0,38.0,31.2,14.4,0001.5,0037.26,0025.12,0023.69
2022-09-07 02:04:00,,0831.4,4.99,0.00,29.3,26.5,00.0,38.0,31.1,14.5,0001.9,0037.25,0025.22,0023.78
2022-09-07 02:05:00,,0831.5,5.01,0.00,29.3,26.8,00.0,38.0,31.0,14.5,0002.3,0036.67,0025.27,0023.86
2022-09-07 02:06:00,,0831.4,5.00,0.00,29.3,27.1,00.0,37.9,31.0,14.5,0002.9,0037.78,0025.33,0023.88
2022-09-07 02:07:00,,0831.4,5.01,0.00,29.3,27.5,00.0,37.9,31.1,14.5,0002.9,0037.83,0025.35,0023.91
2022-09-07 02:08:00,,0831.4,4.99,0.00,29.3,27.8,00.0,38.0,31.2,14.4,0003.3,0037.06,0025.37,0023.92
2022-09-07 02:09:00,,0831.5,5.01,0.00,29.4,28.0,00.0,38.0,31.3,14.2,0003.5,0037.50,0025.41,0023.98
2022-09-07 02:10:00,,0831.5,4.99,0.00,29.4,28.2,00.0,38.0,31.4,14.1,0003.4,0037.39,0025.43,0024.04
2022-09-07 02:11:00,,0831.5,5.00,0.00,29.5,28.4,00.0,38.1,31.4,14.1,0003.2,0037.36,0025.45,0024.07
2022-09-07 02:12:00,,0831.5,5.00,0.00,29.5,28.1,00.0,38.1,31.4,14.0,0003.3,0036.23,0025.45,0024.11
2022-09-07 02:13:00,,0831.5,5.01,0.00,29.5,26.7,00.0,38.1,31.2,13.9,0003.4,0036.51,0025.45,0024.15
2022-09-07 02:14:00,,0831.5,5.00,0.00,29.4,26.2,00.0,38.0,31.2,14.0,0003.1,0036.61,0025.44,0024.16
2022-09-07 02:15:00,,0831.6,4.99,0.00,29.3,26.4,00.0,38.0,31.0,14.0,0003.0,0036.89,0025.42,0024.14
2022-09-07 02:16:00,,0831.5,5.02,0.00,29.3,26.7,00.0,38.0,30.9,14.1,0003.1,0036.65,0025.38,0024.12
2022-09-07 02:17:00,,0831.5,5.00,0.00,29.2,27.0,00.0,37.9,31.0,14.1,0002.8,0035.79,0025.41,0024.15
2022-09-07 02:18:00,,0831.5,5.01,0.00,29.3,27.3,00.0,37.9,31.1,14.1,0003.1,0035.39,0025.43,0024.15
2022-09-07 02:19:00,,0831.5,4.99,0.00,29.3,27.6,00.0,37.9,31.2,14.1,0003.8,0035.95,0025.47,0024.16
2022-09-07 02:20:00,,0831.5,5.01,0.00,29.3,27.9,00.0,38.0,31.3,14.1,0003.7,0037.10,0025.54,0024.17
2022-09-07 02:21:00,,0831.5,4.99,0.00,29.4,28.1,00.0,38.0,31.3,14.1,0003.7,0038.06,0025.59,0024.13
2022-09-07 02:22:00,,0831.5,5.02,0.00,29.4,28.3,00.0,38.0,31.4,13.9,0004.1,0038.61,0025.57,0024.11
2022-09-07 02:23:00,,0831.6,5.00,0.00,29.5,28.5,00.0,38.1,31.5,13.8,0004.0,0039.28,0025.56,0024.08
2022-09-07 02:24:00,,0831.6,5.00,0.00,29.5,28.3,00.0,38.1,31.5,13.7,0004.2,0038.64,0025.56,0024.07
2022-09-07 02:25:00,,0831.6,4.99,0.00,29.5,27.1,00.0,38.1,31.3,13.6,0004.3,0038.08,0025.63,0024.09
2022-09-07 02:26:00,,0831.6,5.00,0.00,29.4,26.2,00.0,38.1,31.2,13.7,0003.9,0038.15,0025.68,0024.13
2022-09-07 02:27:00,,0831.6,5.00,0.00,29.4,26.4,00.0,38.0,31.2,13.6,0003.8,0038.25,0025.76,0024.18
2022-09-07 02:28:00,,0831.6,5.01,0.00,29.3,26.6,00.0,38.0,31.0,13.7,0003.6,0038.26,0025.78,0024.22
2022-09-07 02:29:00,,0831.6,5.00,0.00,29.3,26.9,00.0,38.0,31.0,13.7,0003.4,0039.09,0025.83,0024.30
2022-09-07 02:30:00,,0831.6,5.00,0.00,29.3,27.3,00.0,38.0,31.1,13.6,0002.6,0039.80,0025.83,0024.36
2022-09-07 02:31:00,,0831.6,4.99,0.00,29.3,27.6,00.0,38.0,31.2,13.6,0002.5,0038.62,0025.83,0024.38
2022-09-07 02:32:00,,0831.7,5.01,0.00,29.3,27.9,00.0,38.0,31.2,13.4,0002.6,0037.78,0025.82,0024.43
2022-09-07 02:33:00,,0831.7,4.99,0.00,29.4,28.1,00.0,38.0,31.3,13.4,0002.5,0037.72,0025.89,0024.48
2022-09-07 02:34:00,,0831.7,5.01,0.00,29.4,28.3,00.0,38.0,31.4,13.4,0002.5,0037.03,0025.95,0024.53
2022-09-07 02:35:00,,0831.7,4.99,0.00,29.5,28.4,00.0,38.1,31.4,13.3,0002.5,0036.79,0026.00,0024.56
2022-09-07 02:36:00,,0831.7,5.01,0.00,29.5,28.5,00.0,38.1,31.5,13.3,0002.8,0036.80,0025.99,0024.58
2022-09-07 02:37:00,,0831.7,4.99,0.00,29.5,27.6,00.0,38.1,31.4,13.2,0003.2,0036.32,0025.99,0024.59
2022-09-07 02:38:00,,0831.7,5.01,0.00,29.4,26.4,00.0,38.1,31.2,13.2,0003.2,0036.34,0026.00,0024.62
2022-09-07 02:39:00,,0831.7,5.00,0.00,29.4,26.3,00.0,38.0,31.2,13.3,0003.5,0036.49,0026.05,0024.67
2022-09-07 02:40:00,,0831.7,5.00,0.00,29.3,26.6,00.0,38.0,31.0,13.3,0003.8,0035.59,0026.05,0024.70
2022-09-07 02:41:00,,0831.7,5.00,0.00,29.3,26.9,00.0,38.0,31.0,13.2,0003.8,0035.10,0026.07,0024.70
2022-09-07 02:42:00,,0831.7,5.00,0.00,29.3,27.2,00.0,38.0,31.1,13.2,0004.0,0034.89,0026.08,0024.73
2022-09-07 02:43:00,,0831.7,5.00,0.00,29.3,27.5,00.0,38.0,31.2,13.2,0003.9,0034.82,0026.15,0024.77
2022-09-07 02:44:00,,0831.7,4.99,0.00,29.3,27.8,00.0,38.0,31.2,13.1,0003.8,0034.61,0026.19,0024.79
2022-09-07 02:45:00,,0831.7,5.01,0.00,29.4,28.0,00.0,38.0,31.3,13.0,0003.7,0034.11,0026.07,0024.77
2022-09-07 02:46:00,,0831.7,5.01,0.00,29.4,28.2,00.0,38.0,31.4,13.1,0003.4,0034.01,0026.05,0024.77
2022-09-07 02:47:00,,0831.7,5.00,0.00,29.5,28.4,00.0,38.1,31.4,13.0,0003.7,0035.07,0026.08,0024.79
2022-09-07 02:48:00,,0831.7,4.99,0.00,29.5,28.5,00.0,38.1,31.5,12.9,0003.4,0034.95,0026.07,0024.81
2022-09-07 02:49:00,,0831.7,5.01,0.00,29.6,28.5,00.0,38.1,31.5,12.8,0003.5,0034.90,0026.08,0024.83
2022-09-07 02:50:00,,0831.7,4.99,0.00,29.5,27.2,00.0,38.1,31.4,12.8,0003.5,0034.89,0026.09,0024.84
2022-09-07 02:51:00,,0831.7,5.00,0.00,29.5,26.2,00.0,38.1,31.2,12.9,0003.4,0034.83,0026.12,0024.87
2022-09-07 02:52:00,,0831.7,5.02,0.00,29.4,26.3,00.0,38.1,31.2,12.9,0003.2,0034.40,0026.15,0024.91
2022-09-07 02:53:00,,0831.7,4.98,0.00,29.3,26.6,00.0,38.0,31.0,13.0,0002.9,0033.80,0026.12,0024.94
2022-09-07 02:54:00,,0831.7,5.01,0.00,29.3,26.9,00.0,38.0,31.0,13.1,0003.0,0033.83,0026.13,0024.96
2022-09-07 02:55:00,,0831.7,5.00,0.00,29.3,27.3,00.0,38.0,31.1,13.1,0003.2,0034.00,0026.12,0024.99
2022-09-07 02:56:00,,0831.7,5.00,0.00,29.3,27.6,00.0,38.0,31.2,13.0,0003.2,0034.31,0026.15,0025.00
2022-09-07 02:57:00,,0831.7,5.01,0.00,29.4,27.9,00.0,38.0,31.3,12.9,0003.3,0034.31,0026.18,0025.01
2022-09-07 02:58:00,,0831.7,5.00,0.00,29.4,28.1,00.0,38.0,31.3,12.9,0003.0,0033.44,0026.17,0024.99
2022-09-07 02:59:00,,0831.7,5.01,0.00,29.4,28.3,00.0,38.1,31.4,12.8,0002.8,0033.50,0026.20,0024.97
